Regional Weather Roundup
Issued by NWS Midland/Odessa, TX

Home | Current Version | Previous Version | Text Only | Print | Product List | Glossary On
Versions: 1 2 3 4 5 6 7 8 9 10 11 12 13 14 15 16 17 18 19 20 21 22 23 24 25 26 27 28 29 30 31 32 33 34 35 36 37 38 39 40 41 42 43 44 45 46 47 48 49 50
000
ASUS44 KMAF 260510
RWRMAF
MIDLAND AREA WEATHER ROUNDUP
NATIONAL WEATHER SERVICE MIDLAND TX
1200 AM CDT SUN OCT 26 2014

...IN SOUTHWEST TEXAS AND SOUTHEAST NEW MEXICO...

CITY           SKY/WX    TMP DP  RH WIND       PRES   REMARKS
ALPINE         CLEAR     64  51  62 SW7       30.26F
ANDREWS        FAIR      67  51  56 S8        30.11F
ARTESIA        NOT AVBL
BIG SPRING     CLEAR     69  52  54 SE10      30.13S
CARLSBAD       CLEAR     57  50  77 SW9       30.08F
DRYDEN           N/A     67  58  72 NE5       30.09F
FORT STOCKTON  CLEAR     68  55  63 S16       30.11F
GUAD PASS      CLEAR     64  37  36 SW10      30.24F
HOBBS          CLEAR     59  46  63 S8        30.13S
MARFA          CLEAR     54  48  82 E3        30.25S
MIDLAND AIRPK  CLEAR     70  51  50 S10       30.12S
MIDLAND INTL   CLEAR     70  51  51 S9        30.11S
ODESSA         CLEAR     71  52  50 S14       30.12S
PECOS          CLEAR     65  54  67 SE3       30.07S
PRESIDIO       FAIR      70  51  49 N8        30.10F
SEMINOLE       CLEAR     62  52  69 S3        30.12S
SNYDER         CLEAR     65  50  59 S7        30.09S
WINK           CLEAR     68  52  56 SE12      30.08S
$$
...OTHER STATIONS IN TEXAS...

CITY           SKY/WX    TMP DP  RH WIND       PRES   REMARKS
ABILENE        CLEAR     74  54  49 S12       30.07F
AMARILLO       CLEAR     64  50  60 S15       30.06F
AUSTIN         CLEAR     68  59  73 S8        30.09S
BROWNSVILLE    CLEAR     68  66  93 CALM      30.10F
CORPUS CHRISTI CLEAR     66  63  90 S3        30.09F
DALLAS FTW     CLEAR     73  60  63 S10       30.04S
DEL RIO        CLEAR     69  60  73 CALM      30.07F
EL PASO        CLEAR     64  50  60 SE3       30.13S
HOUSTON INT    CLEAR     61  59  93 CALM      30.10F
LUBBOCK        CLEAR     65  46  50 S12       30.09F
SAN ANGELO     CLEAR     65  52  62 S6        30.09F
SAN ANTONIO    CLEAR     73  60  63 S10       30.10S
WACO           CLEAR     71  61  70 S8        30.07F
WICHITA FALLS  NOT AVBL
$$
...OTHER LOCATIONS IN NEW MEXICO...

CITY           SKY/WX    TMP DP  RH WIND       PRES   REMARKS
ALAMAGORDO     NOT AVBL
ALBUQUERQUE    CLEAR     62  34  35 S6        30.19R
CANNON AFB     CLEAR     56  42  59 SW7       30.12F
CLOVIS         CLEAR     54  39  58 SW8       30.14F
HOLLOMAN AFB   PTCLDY    60  45  59 S8        30.13S
ROSWELL        CLEAR     57  52  83 SW6       30.08F
RUIDOSO        CLEAR     57  34  41 W12       30.31S
SANTA FE       CLEAR     56  29  35 NW3       30.23S
TRUTH OR CONSE CLEAR     63  43  48 SW6       30.17S
TUCUMCARI      CLEAR     67  45  45 SW15      30.05S
$$



USA.gov is the U.S. government's official web portal to all federal, state and local government web resources and services.